This demonstration page uses our WeatherBlox Daily Observations layout. Learn more.

Left ArrowRight Arrow

39.01783, -85.05884

Hourly Observations for August 26, 2016

Temp ( °F °C ) Dew Point ( °F °C ) Humidity (%) Winds ( mph kmh ) Pressure ( in mb ) Visibility ( mi km ) Precip ( " mm )
12:52 am 00:52 Clear 77 25 72 22.2 85 85 SW 3 6 30.06 1018 10 16 N/A
1:52 am 01:52 Mostly Clear 76 24.4 71 21.7 85 85 N N/A 30.06 1018 10 16 N/A
2:52 am 02:52 Mostly Clear 75 23.9 71 21.7 88 88 SSW 3 6 30.07 1018 9 14 N/A
3:52 am 03:52 Clear 74 23.3 71 21.7 91 91 SW 3 6 30.07 1018 9 14 N/A
4:52 am 04:52 Clear 73 22.8 71 21.7 94 94 W 5 7 30.07 1018 9 14 N/A
5:52 am 05:52 Clear 72 22.2 71 21.7 97 97 N N/A 30.08 1019 7 11 N/A
6:52 am 06:52 Mostly Clear with Mist and Fog 71 21.7 71 21.7 100 100 N N/A 30.09 1019 6 10 N/A
7:52 am 07:52 Mostly Sunny 72 22.2 71 21.7 97 97 N N/A 30.10 1019 7 11 N/A
8:52 am 08:52 Mostly Sunny 78 25.6 73 22.8 85 85 N N/A 30.12 1020 7 11 N/A
9:52 am 09:52 Mostly Sunny 82 27.8 74 23.3 77 77 N N/A 30.12 1020 8 13 N/A
10:52 am 10:52 Mostly Sunny 85 29.4 74 23.3 70 70 SE 5 7 30.12 1020 9 14 N/A
11:52 am 11:52 Partly Cloudy 87 30.6 74 23.3 65 65 N N/A 30.12 1020 10 16 N/A
12:52 pm 12:52 Partly Cloudy 87 30.6 74 23.3 65 65 VRB 5 7 30.10 1019 9 14 N/A
1:52 pm 13:52 Partly Cloudy 88 31.1 73 22.8 61 61 N N/A 30.09 1019 10 16 N/A
2:52 pm 14:52 Mostly Cloudy 89 31.7 73 22.8 59 59 WSW 3 6 30.08 1019 10 16 N/A
3:52 pm 15:52 Mostly Cloudy 89 31.7 72 22.2 57 57 N N/A 30.05 1018 10 16 N/A
4:52 pm 16:52 Mostly Cloudy 92 33.3 72 22.2 52 52 W 5 7 30.04 1017 10 16 N/A
5:52 pm 17:52 Mostly Cloudy 91 32.8 71 21.7 52 52 W 6 9 30.04 1017 10 16 N/A
6:52 pm 18:52 Mostly Cloudy 90 32.2 72 22.2 56 56 N N/A 30.04 1017 10 16 N/A
7:39 pm 19:39 Mostly Cloudy with Thunderstorms 86 30 73 23 66 66 NE 8 13 30.03 1017 9 14 N/A
7:52 pm 19:52 Mostly Cloudy with Thunderstorms 84 28.9 74 23.3 72 72 NNE 10 17 30.07 1018 9 14 N/A
8:52 pm 20:52 Mostly Cloudy with Thunderstorms 81 27.2 67 19.4 62 62 SE 16 26 30.09 1019 10 16 N/A
9:19 pm 21:19 Mostly Cloudy 81 27 66 19 62 62 NE 3 6 30.09 1019 10 16 N/A
9:52 pm 21:52 Mostly Clear 79 26.1 69 20.6 72 72 NE 3 6 30.10 1019 10 16 N/A
10:52 pm 22:52 Mostly Clear 76 24.4 73 22.8 91 91 N 5 7 30.09 1019 10 16 N/A
11:52 pm 23:52 Mostly Cloudy 76 24.4 71 21.7 85 85 N 3 6 30.08 1019 10 16 N/A

Powered by AerisWeather